Regional Weather Roundup
Issued by NWS State College, PA

Home | Current Version | Previous Version | Graphics & Text | Print | Product List | Glossary On
Versions: 1 2 3 4 5 6 7 8 9 10 11 12 13 14 15 16 17 18 19 20 21 22 23 24 25 26 27 28 29 30 31 32 33 34 35 36 37 38 39 40 41 42 43 44 45 46 47 48 49 50
000
ASUS41 KCTP 211910
RWRCTP

REGIONAL WEATHER ROUNDUP
NATIONAL WEATHER SERVICE STATE COLLEGE PA
300 PM EDT MON AUG 21 2017

Note: "fair" indicates few or no clouds below 12,000 feet with no
significant weather and/or obstructions to visibility.

* = STATION THAT DOES NOT REPORT PRECIPITATION /E.G. RAIN...SNOW...ETC/
    THUNDER OR FOG.

PAZ002>004-007>009-013>016-020>023-029>032-212000-
WESTERN PENNSYLVANIA

CITY           SKY/WX    TMP DP  RH WIND       PRES   REMARKS
ERIE           SUNNY     77  70  79 W5        30.10F
MEADVILLE      SUNNY     79  66  64 CALM      30.14F
FRANKLIN*      MOSUNNY   81  64  57 CALM      30.15F
NEW CASTLE     CLOUDY    83  70  64 CALM      30.13F
BEAVER COUNTY  SUNNY     82  68  61 SW5       30.15F
BUTLER*        PTSUNNY   81  70  69 SW5       30.15F
PITTSBURGH INT PTSUNNY   82  69  64 SW8       30.15F
PITTSBURGH     MOSUNNY   80  68  66 S6        30.15F
INDIANA*       SUNNY     81  72  74 SW6       30.19F
LATROBE        PTSUNNY   81  72  74 SW13      30.17F
WASHINGTON CO* CLOUDY    79  70  73 SW6       30.16F
$$

PAZ004>006-010>012-017>019-024>028-033>037-041-042-045-046-049>053-212000-
CENTRAL PENNSYLVANIA

CITY           SKY/WX    TMP DP  RH WIND       PRES   REMARKS
BRADFORD       MOSUNNY   79  64  60 W5        30.17F
DUBOIS         MOSUNNY   79  64  60 SW7       30.16F
CLEARFIELD     SUNNY     75  70  84 N5        30.17F
JOHNSTOWN      SUNNY     78  66  66 W7        30.21F
ALTOONA        MOSUNNY   79  72  79 S3        30.18F
STATE COLLEGE  MOSUNNY   75  72  88 CALM      30.16F
WILLIAMSPORT   MOSUNNY   83  71  67 E6        30.10F
SELINSGROVE    PTSUNNY   80  72  76 S8        30.12F
FT INDIANTOWN  MOSUNNY   82  73  73 CALM      30.14F
CAPITAL CITY   MOSUNNY   85  71  63 S5        30.13F
HARRISBURG     PTSUNNY   84  75  74 SW6       30.12F
YORK           MOSUNNY   84  73  69 CALM      30.13F
$$

PAZ038>040-043-044-047-048-054-055-060>062-067>071-212000-
EASTERN PENNSYLVANIA

CITY           SKY/WX    TMP DP  RH WIND       PRES   REMARKS
SCRANTON       SUNNY     83  67  58 SW10      30.14F
MOUNT POCONO   MOSUNNY   76  68  76 SW9       30.21F
ALLENTOWN      MOSUNNY   82  70  66 SW9       30.14F
QUAKERTOWN*    PTCLDY    82  72  69 SW3       30.17F
READING        SUNNY     83  74  74 S6        30.13F
LANCASTER      MOSUNNY   84  73  69 S9        30.13F
COATESVILLE    PTCLDY    79  72  78 VRB3      30.18F
POTTSTOWN      PTSUNNY   81  69  67 S7        30.17F
BLUE BELL      PTSUNNY   79  68  69 SW7       30.17F
DOYLESTOWN     PTSUNNY   81  69  67 S3        30.14F
WILLOW GROVE   NOT AVBL
NORTH PHILA    CLOUDY    85  68  56 SW9       30.16F
PHILADELPHIA   PTSUNNY   84  67  56 S10       30.15F
$$




USA.gov is the U.S. government's official web portal to all federal, state and local government web resources and services.